Regional Weather Roundup
Issued by NWS

Home | Current Version | Previous Version | Text Only | Print | Product List | Glossary Off
Versions: 1 2 3 4 5 6 7 8 9 10 11 12 13 14 15 16 17 18 19 20 21 22 23 24 25 26 27 28 29 30 31 32 33 34 35 36 37 38 39 40 41 42 43 44 45 46 47 48 49 50

000
ASUS43 KBIS 010020
RWRND

NORTH DAKOTA REGIONAL WEATHER ROUNDUP
NATIONAL WEATHER SERVICE BISMARCK ND
700 PM CDT TUE SEP 30 2014

NOTE: "FAIR" INDICATES FEW OR NO CLOUDS BELOW 12,000 FEET WITH NO
SIGNIFICANT WEATHER AND/OR OBSTRUCTIONS TO VISIBILITY.


NDZ001>003-009>011-017-010100-
NORTHWEST NORTH DAKOTA

CITY           SKY/WX    TMP DP  RH WIND       PRES   REMARKS
WILLISTON      CLOUDY    53  51  93 NE5       29.53S
6HR MIN TEMP:  52; 6HR MAX TEMP:  56; 6HR PCP:  0.28;

MINOT          CLOUDY    51  49  92 E12       29.52F FOG
MINOT AFB      CLOUDY    51  51 100 E13       29.53F
$$

NDZ018>021-031>035-040>046-010100-
SOUTHWEST NORTH DAKOTA

CITY           SKY/WX    TMP DP  RH WIND       PRES   REMARKS
BISMARCK       CLOUDY    55  54  96 E20G31    29.38F
6HR MIN TEMP:  53; 6HR MAX TEMP:  55; 6HR PCP:  0.02;

DICKINSON      CLOUDY    52  50  93 N8        29.46S
GARRISON         N/A     52  51  97 E13G21    29.48F
6HR MIN TEMP:  51; 6HR MAX TEMP:  52; 6HR PCP:  0.01;

HETTINGER ARPT CLOUDY    54  52  93 W13       29.47R
$$

NDZ004>008-012>016-024-026-027-054-010100-
NORTHEAST NORTH DAKOTA

CITY           SKY/WX    TMP DP  RH WIND       PRES   REMARKS
GRAND FORKS    CLOUDY    59  47  64 SE15      29.65F
GRND FRKS AFB  CLOUDY    56  53  87 SE8       29.65F
DEVILS LAKE    CLOUDY    54  45  71 SE20G31   29.57F
$$

NDZ022-023-025-028>030-036>039-047>053-010100-
SOUTHEAST NORTH DAKOTA

CITY           SKY/WX    TMP DP  RH WIND       PRES   REMARKS
FARGO          CLOUDY    59  49  69 SE17G26   29.64F
6HR MIN TEMP:  58; 6HR MAX TEMP:  61; 6HR PCP:  0.01;

JAMESTOWN      RAIN      52  50  93 SE18G32   29.55S FOG
$$




USA.gov is the U.S. government's official web portal to all federal, state and local government web resources and services.